Content
SEND FEEDBACK

Daily
Averages
Monthly
Summary
Malaysia

KAMPONG RUNGUH, MALAYSIA


Home > Asia > Malaysia
Elevation: 3 meters     Latitude: 05 56N     Longitude: 116 03E

WEATHER
 
SELECT A DAY
Number of Records: 276,667;   Date Range: 8/9/96 - 9/29/14
 
SHARE

PRINT THIS DATA

[ ← Previous Day ]
WEATHER ALMANAC - 3 JANUARY, 2013
[ Next Day → ]
[ °F ]   °C
Weather ElementAverageHighLow
Temperature27.6 °C30 °C (10:30 am)24.4 °C (5:00 am)
Dewpoint24 °C25 °C (8:00 pm)23 °C (7:30 am)
Humidity80.4 %94 % (8:00 pm)65 % (11:00 am)
Barometer1009.8 hPa1012.2 hPa (9:00 am)1008.1 hPa (2:30 pm)
Wind Speed6.9 km/h13 km/h (1:00 pm)
Weather ElementAverage
Visibility11.1 km
Wind DirectionENE (60.5 °)

Weather ElementTotal
Precipitation---
Cooling Degree Days8.9 (Base 18.3)
Growing Degree Days17.2 (Base 10)
Averaged from 40 records on 3 January, 2013
WEATHER CONDITIONS BREAKOUT
WIND DIRECTION BREAKOUT
WEATHER BY HOUR - 3 JANUARY, 2013
[ °F ]   °C
Local TimeTemperatureDewpointHumidityBarometerVisibilityWind DirectionWind SpeedGust SpeedPrecipitationEventsConditions
5:00 AM24.4 °C23.3 °C90 %1010.2 hPa17.7 kmESE (110°)5.6 km/hPartly Cloudy
7:30 AM26 °C23 °C83 %1011.2 hPa10 kmESE (110°)5.6 km/hMostly Cloudy
8:00 AM27.2 °C23.9 °C76 %1011.5 hPa19.3 kmEast (90°)3.7 km/hHaze
8:00 AM27 °C24 °C84 %1011.2 hPa10 kmEast (90°)3.7 km/hMostly Cloudy
8:30 AM28 °C24 °C79 %1011.2 hPa10 kmEast (80°)3.7 km/hMostly Cloudy
9:00 AM29 °C24 °C74 %1012.2 hPa10 kmEast (90°)7.4 km/hMostly Cloudy
9:30 AM29 °C24 °C74 %1011.2 hPa10 kmNorth (10°)5.6 km/hMostly Cloudy
10:00 AM29 °C24 °C74 %1011.2 hPa10 kmNorth (10°)7.4 km/hMostly Cloudy
10:30 AM30 °C24 °C70 %1011.2 hPa10 kmNorth (10°)7.4 km/hMostly Cloudy
11:00 AM30 °C24 °C70 %1011.2 hPa10 kmNNE (20°)7.4 km/hMostly Cloudy
11:00 AM29.4 °C23.9 °C65 %1011.5 hPa19.3 kmNNE (20°)7.4 km/hHaze
11:30 AM30 °C24 °C70 %1011.2 hPa10 kmNNE (30°)7.4 km/hMostly Cloudy
12:00 PM30 °C24 °C70 %1010.2 hPa10 kmNE (50°)11.1 km/hMostly Cloudy
12:30 PM30 °C24 °C70 %1010.2 hPa10 kmNNE (20°)9.3 km/hMostly Cloudy
1:00 PM29 °C24 °C74 %1010.2 hPa10 kmNNE (20°)13 km/hOvercast
1:30 PM29 °C24 °C74 %1009.1 hPa10 kmNNE (20°)11.1 km/hOvercast
2:00 PM28.9 °C24.4 °C70 %1009.1 hPa19.3 kmNNE (20°)9.3 km/hHaze
2:00 PM29 °C24 °C74 %1009.1 hPa10 kmNNE (20°)9.3 km/hOvercast
2:30 PM29 °C24 °C74 %1008.1 hPa10 kmENE (60°)11.1 km/hOvercast
3:00 PM29 °C24 °C74 %1008.1 hPa10 kmNE (50°)11.1 km/hOvercast
3:30 PM29 °C24 °C74 %1008.1 hPa10 kmNorth (10°)5.6 km/hOvercast
4:00 PM28 °C24 °C79 %1008.1 hPa10 kmNNE (20°)7.4 km/hOvercast
4:30 PM28 °C24 °C79 %1008.1 hPa10 kmNorth (10°)3.7 km/hOvercast
5:00 PM27.8 °C23.9 °C73 %1008.5 hPa22.5 kmNorth (10°)5.6 km/hHaze
5:00 PM28 °C24 °C79 %1008.1 hPa10 kmNorth (10°)5.6 km/hOvercast
5:30 PM28 °C24 °C79 %1008.1 hPa10 kmNorth (360°)5.6 km/hOvercast
6:00 PM27 °C24 °C84 %1008.1 hPa10 kmNNE (20°)11.1 km/hOvercast
6:30 PM27 °C24 °C84 %1009.1 hPa10 kmNNE (20°)3.7 km/hOvercast
7:00 PM27 °C24 °C84 %1009.1 hPa10 kmNorth (10°)5.6 km/hOvercast
7:30 PM27 °C24 °C84 %1010.2 hPa10 kmNorth (10°)5.6 km/hOvercast
8:00 PM26 °C25 °C94 %1010.2 hPa10 kmNNE (20°)7.4 km/hRainLight Rain
8:00 PM26.1 °C24.4 °C88 %1010.5 hPa9.7 kmNNE (20°)7.4 km/hRainLight Rain
8:30 PM26 °C24 °C89 %1010.2 hPa10 kmNE (50°)13 km/hRainLight Rain
9:00 PM25 °C24 °C94 %1010.2 hPa10 kmENE (70°)9.3 km/hRainLight Rain
9:30 PM25 °C24 °C94 %1010.2 hPa10 kmNE (40°)3.7 km/hRainLight Rain
10:00 PM25 °C24 °C94 %1010.2 hPa10 kmESE (110°)5.6 km/hRainLight Rain
10:30 PM25 °C24 °C94 %1010.2 hPa10 kmESE (110°)5.6 km/hRainLight Rain
11:00 PM25 °C23.9 °C93 %1009.8 hPa9.7 kmESE (120°)3.7 km/hRainLight Rain
11:00 PM25 °C24 °C94 %1009.1 hPa10 kmESE (120°)3.7 km/hRainLight Rain
11:30 PM25 °C24 °C94 %1009.1 hPa10 kmNorth (350°)1.9 km/hRainLight Rain
Hourly data recorded from WBKK, located 0 kilometers away from Kampong Runguh, Malaysia







STORIES FROM OUR PARTNERS